Location: Góry Miechowskie
(50.3599°N, 20.1803°E)
Time: 15:01:06
(UTC+00:00)

A-11 Canister half - Pass Details

Date: 15 September 2024
Orbit: 1515 x 1684 km, 47.2° (Epoch: 07 October)

Event Time Altitude Azimuth Distance (km) Brightness Sun altitude
Rises 22:36:32 0° 285° (WNW) 4,668 11.7 -37.1°
Reaches altitude 10° 22:39:42 10° 280° (W) 3,679 11.0 -37.1°
Enters shadow 22:43:00 24° 269° (W) 2,737 10.2 -37.1°
Maximum altitude 22:48:22 48° 210° (SSW) 1,919 - -37.0°
Drops below altitude 10° 22:57:07 10° 140° (SE) 3,711 - -36.9°
Sets 23:00:20 0° 135° (SE) 4,711 - -36.8°
